Time,TemperatureF,DewpointF,PressureIn,WindDirection,WindDirectionDegrees,WindSpeedMPH,WindSpeedGustMPH,Humidity,HourlyPrecipIn,Conditions,Clouds,dailyrainin,SoftwareType,DateUTC
2013-08-04 00:04:00,57.9,47.4,29.89,West,270,0.0,0.0,68,0.00,,,0.00,LWC V2.10 B1813,2013-08-04 07:04:00,
2013-08-04 00:09:00,57.7,47.2,29.89,NW,315,0.0,0.0,68,0.00,,,0.00,LWC V2.10 B1813,2013-08-04 07:09:00,
2013-08-04 00:14:00,57.6,47.0,29.89,NW,315,0.0,0.0,68,0.00,,,0.00,LWC V2.10 B1813,2013-08-04 07:14:00,
2013-08-04 00:19:00,57.6,47.0,29.89,NW,315,0.0,0.0,68,0.00,,,0.00,LWC V2.10 B1813,2013-08-04 07:19:00,
2013-08-04 00:24:00,57.4,46.8,29.89,NW,315,0.0,0.0,68,0.00,,,0.00,LWC V2.10 B1813,2013-08-04 07:24:00,
2013-08-04 00:29:00,57.2,46.7,29.89,NW,315,0.0,0.0,68,0.00,,,0.00,LWC V2.10 B1813,2013-08-04 07:29:00,
2013-08-04 00:34:00,57.0,46.5,29.89,NW,315,0.0,0.0,68,0.00,,,0.00,LWC V2.10 B1813,2013-08-04 07:34:00,
2013-08-04 00:39:00,57.0,46.9,29.89,West,270,0.0,0.0,69,0.00,,,0.00,LWC V2.10 B1813,2013-08-04 07:39:00,
2013-08-04 00:44:00,57.0,46.9,29.89,West,270,0.0,0.0,69,0.00,,,0.00,LWC V2.10 B1813,2013-08-04 07:44:00,
2013-08-04 00:49:00,57.0,46.9,29.89,West,270,0.0,0.0,69,0.00,,,0.00,LWC V2.10 B1813,2013-08-04 07:49:00,
2013-08-04 00:54:00,56.8,46.7,29.88,West,270,0.0,0.0,69,0.00,,,0.00,LWC V2.10 B1813,2013-08-04 07:54:00,
2013-08-04 00:59:00,56.8,46.7,29.89,West,270,0.0,0.0,69,0.00,,,0.00,LWC V2.10 B1813,2013-08-04 07:59:00,
2013-08-04 01:04:00,56.8,46.7,29.89,WNW,292,0.0,0.0,69,0.00,,,0.00,LWC V2.10 B1813,2013-08-04 08:04:00,
2013-08-04 01:09:00,56.5,46.8,29.89,NW,315,0.0,0.0,70,0.00,,,0.00,LWC V2.10 B1813,2013-08-04 08:09:00,
2013-08-04 01:14:00,56.5,46.8,29.89,NW,315,0.0,0.0,70,0.00,,,0.00,LWC V2.10 B1813,2013-08-04 08:14:00,
2013-08-04 01:19:00,56.3,46.7,29.89,West,270,0.0,0.0,70,0.00,,,0.00,LWC V2.10 B1813,2013-08-04 08:19:00,
2013-08-04 01:24:00,56.3,46.7,29.89,NNW,337,0.0,0.0,70,0.00,,,0.00,LWC V2.10 B1813,2013-08-04 08:24:00,
2013-08-04 01:29:00,56.1,46.5,29.89,NW,315,0.0,0.0,70,0.00,,,0.00,LWC V2.10 B1813,2013-08-04 08:29:00,
2013-08-04 01:34:00,56.1,46.5,29.89,NW,315,0.0,0.0,70,0.00,,,0.00,LWC V2.10 B1813,2013-08-04 08:34:00,
2013-08-04 01:39:00,56.1,46.8,29.89,NNW,337,0.0,0.0,71,0.00,,,0.00,LWC V2.10 B1813,2013-08-04 08:39:00,
2013-08-04 01:44:00,55.9,46.7,29.89,NNW,337,0.0,0.0,71,0.00,,,0.00,LWC V2.10 B1813,2013-08-04 08:44:00,
2013-08-04 01:49:00,55.8,46.5,29.89,NNW,337,0.0,0.0,71,0.00,,,0.00,LWC V2.10 B1813,2013-08-04 08:49:00,
2013-08-04 01:54:00,55.9,46.7,29.89,NNW,337,0.0,0.0,71,0.00,,,0.00,LWC V2.10 B1813,2013-08-04 08:54:00,
2013-08-04 01:59:00,55.9,47.0,29.89,NNW,337,0.0,0.0,72,0.00,,,0.00,LWC V2.10 B1813,2013-08-04 08:59:00,
2013-08-04 02:04:00,55.9,47.0,29.89,NNW,337,0.0,0.0,72,0.00,,,0.00,LWC V2.10 B1813,2013-08-04 09:04:00,
2013-08-04 02:09:00,55.8,46.9,29.89,North,0,0.0,0.0,72,0.00,,,0.00,LWC V2.10 B1813,2013-08-04 09:09:00,
2013-08-04 02:14:00,55.6,46.7,29.89,North,0,0.0,0.0,72,0.00,,,0.00,LWC V2.10 B1813,2013-08-04 09:14:00,
2013-08-04 02:19:00,55.8,47.2,29.88,North,0,0.0,0.0,73,0.00,,,0.00,LWC V2.10 B1813,2013-08-04 09:19:00,
2013-08-04 02:24:00,55.9,47.4,29.88,North,0,0.0,0.0,73,0.00,,,0.00,LWC V2.10 B1813,2013-08-04 09:24:00,
2013-08-04 02:29:00,55.9,47.4,29.88,North,0,0.0,0.0,73,0.00,,,0.00,LWC V2.10 B1813,2013-08-04 09:29:00,
2013-08-04 02:34:00,56.1,47.6,29.88,North,0,0.0,0.0,73,0.00,,,0.00,LWC V2.10 B1813,2013-08-04 09:34:00,
2013-08-04 02:39:00,56.5,47.5,29.88,North,0,0.0,0.0,72,0.00,,,0.00,LWC V2.10 B1813,2013-08-04 09:39:00,
2013-08-04 02:44:00,56.5,47.5,29.87,North,0,0.0,0.0,72,0.00,,,0.00,LWC V2.10 B1813,2013-08-04 09:44:00,
2013-08-04 02:49:00,56.7,47.9,29.87,North,0,0.0,0.0,72,0.00,,,0.00,LWC V2.10 B1813,2013-08-04 09:49:00,
2013-08-04 02:54:00,56.8,47.9,29.87,North,0,0.0,0.0,72,0.00,,,0.00,LWC V2.10 B1813,2013-08-04 09:54:00,
2013-08-04 02:59:00,56.8,47.9,29.87,North,0,0.0,0.0,72,0.00,,,0.00,LWC V2.10 B1813,2013-08-04 09:59:00,
2013-08-04 03:04:00,57.0,47.7,29.88,North,0,0.0,0.0,71,0.00,,,0.00,LWC V2.10 B1813,2013-08-04 10:04:00,
2013-08-04 03:09:00,57.0,47.7,29.88,North,0,0.0,0.0,71,0.00,,,0.00,LWC V2.10 B1813,2013-08-04 10:09:00,
2013-08-04 03:14:00,57.0,47.7,29.88,North,0,0.0,0.0,71,0.00,,,0.00,LWC V2.10 B1813,2013-08-04 10:14:00,
2013-08-04 03:19:00,56.8,47.5,29.87,North,0,0.0,0.0,71,0.00,,,0.00,LWC V2.10 B1813,2013-08-04 10:19:00,
2013-08-04 03:24:00,56.8,47.5,29.87,North,0,0.0,0.0,71,0.00,,,0.00,LWC V2.10 B1813,2013-08-04 10:24:00,
2013-08-04 03:29:00,56.8,47.5,29.88,North,0,0.0,0.0,71,0.00,,,0.00,LWC V2.10 B1813,2013-08-04 10:29:00,
2013-08-04 03:34:00,56.8,47.5,29.87,North,0,0.0,0.0,71,0.00,,,0.00,LWC V2.10 B1813,2013-08-04 10:34:00,
2013-08-04 03:39:00,56.8,47.5,29.87,North,0,0.0,0.0,71,0.00,,,0.00,LWC V2.10 B1813,2013-08-04 10:39:00,
2013-08-04 03:44:00,56.5,47.2,29.87,North,0,0.0,0.0,71,0.00,,,0.00,LWC V2.10 B1813,2013-08-04 10:44:00,
2013-08-04 03:49:00,56.7,47.7,29.87,North,0,0.0,0.0,72,0.00,,,0.00,LWC V2.10 B1813,2013-08-04 10:49:00,
2013-08-04 03:54:00,56.8,47.9,29.87,North,0,0.0,0.0,72,0.00,,,0.00,LWC V2.10 B1813,2013-08-04 10:54:00,
2013-08-04 03:59:00,56.8,47.5,29.87,NNE,22,0.0,0.0,71,0.00,,,0.00,LWC V2.10 B1813,2013-08-04 10:59:00,
2013-08-04 04:04:00,56.8,47.5,29.88,NNE,22,0.0,0.0,71,0.00,,,0.00,LWC V2.10 B1813,2013-08-04 11:04:00,
2013-08-04 04:09:00,56.8,47.5,29.88,NNE,22,0.0,0.0,71,0.00,,,0.00,LWC V2.10 B1813,2013-08-04 11:09:00,
2013-08-04 04:14:00,56.8,47.5,29.88,NNE,22,0.0,0.0,71,0.00,,,0.00,LWC V2.10 B1813,2013-08-04 11:14:00,
2013-08-04 04:19:00,56.8,47.9,29.88,NNE,22,0.0,0.0,72,0.00,,,0.00,LWC V2.10 B1813,2013-08-04 11:19:00,
2013-08-04 04:24:00,56.8,47.5,29.88,NNE,22,0.0,0.0,71,0.00,,,0.00,LWC V2.10 B1813,2013-08-04 11:24:00,
2013-08-04 04:29:00,56.8,47.5,29.88,NNE,22,0.0,0.0,71,0.00,,,0.00,LWC V2.10 B1813,2013-08-04 11:29:00,
2013-08-04 04:34:00,57.0,47.5,29.88,NNE,22,0.0,0.0,71,0.00,,,0.00,LWC V2.10 B1813,2013-08-04 11:34:00,
2013-08-04 04:39:00,57.0,47.7,29.88,NNE,22,0.0,0.0,71,0.00,,,0.00,LWC V2.10 B1813,2013-08-04 11:39:00,
2013-08-04 04:44:00,57.0,47.7,29.88,NNE,22,0.0,0.0,71,0.00,,,0.00,LWC V2.10 B1813,2013-08-04 11:44:00,
2013-08-04 04:49:00,57.0,47.7,29.88,NE,45,0.0,0.0,71,0.00,,,0.00,LWC V2.10 B1813,2013-08-04 11:49:00,
2013-08-04 04:54:00,57.0,47.7,29.89,NE,45,0.0,0.0,71,0.00,,,0.00,LWC V2.10 B1813,2013-08-04 11:54:00,
2013-08-04 04:59:00,57.0,47.7,29.89,NE,45,0.0,0.0,71,0.00,,,0.00,LWC V2.10 B1813,2013-08-04 11:59:00,
2013-08-04 05:04:00,57.0,47.7,29.89,NNE,22,0.0,0.0,71,0.00,,,0.00,LWC V2.10 B1813,2013-08-04 12:04:00,
2013-08-04 05:09:00,57.4,48.0,29.89,NNE,22,0.0,0.0,71,0.00,,,0.00,LWC V2.10 B1813,2013-08-04 12:09:00,
2013-08-04 05:14:00,57.4,48.0,29.89,NNE,22,0.0,0.0,71,0.00,,,0.00,LWC V2.10 B1813,2013-08-04 12:14:00,
2013-08-04 05:19:00,57.4,48.0,29.89,South,180,0.0,0.0,71,0.00,,,0.00,LWC V2.10 B1813,2013-08-04 12:19:00,
2013-08-04 05:24:00,57.4,48.0,29.89,South,180,0.0,0.0,71,0.00,,,0.00,LWC V2.10 B1813,2013-08-04 12:24:00,
2013-08-04 05:29:00,57.4,48.0,29.89,South,180,0.0,0.0,71,0.00,,,0.00,LWC V2.10 B1813,2013-08-04 12:29:00,
2013-08-04 05:34:00,57.2,47.8,29.89,WNW,292,0.0,0.0,71,0.00,,,0.00,LWC V2.10 B1813,2013-08-04 12:34:00,
2013-08-04 05:39:00,57.0,47.7,29.89,WNW,292,0.0,0.0,71,0.00,,,0.00,LWC V2.10 B1813,2013-08-04 12:39:00,
2013-08-04 05:44:00,57.0,47.7,29.89,WNW,292,0.0,0.0,71,0.00,,,0.00,LWC V2.10 B1813,2013-08-04 12:44:00,
2013-08-04 05:49:00,57.0,47.7,29.89,WNW,292,0.0,0.0,71,0.00,,,0.00,LWC V2.10 B1813,2013-08-04 12:49:00,
2013-08-04 05:54:00,57.0,47.7,29.89,WNW,292,0.0,0.0,71,0.00,,,0.00,LWC V2.10 B1813,2013-08-04 12:54:00,
2013-08-04 05:59:00,57.0,47.7,29.89,WNW,292,0.0,0.0,71,0.00,,,0.00,LWC V2.10 B1813,2013-08-04 12:59:00,
2013-08-04 06:04:00,57.0,47.7,29.89,WNW,292,0.0,0.0,71,0.00,,,0.00,LWC V2.10 B1813,2013-08-04 13:04:00,
2013-08-04 06:09:00,57.0,47.7,29.89,WNW,292,0.0,0.0,71,0.00,,,0.00,LWC V2.10 B1813,2013-08-04 13:09:00,
2013-08-04 06:14:00,57.0,47.7,29.89,WNW,292,0.0,0.0,71,0.00,,,0.00,LWC V2.10 B1813,2013-08-04 13:14:00,
2013-08-04 06:19:00,57.0,47.7,29.89,NW,315,0.0,0.0,71,0.00,,,0.00,LWC V2.10 B1813,2013-08-04 13:19:00,
2013-08-04 06:24:00,57.0,47.7,29.90,NW,315,0.0,0.0,71,0.00,,,0.00,LWC V2.10 B1813,2013-08-04 13:24:00,
2013-08-04 06:29:00,57.0,47.7,29.89,NW,315,0.0,0.0,71,0.00,,,0.00,LWC V2.10 B1813,2013-08-04 13:29:00,
2013-08-04 06:34:00,57.4,47.8,29.89,NW,315,0.0,0.0,71,0.00,,,0.00,LWC V2.10 B1813,2013-08-04 13:34:00,
2013-08-04 06:39:00,57.4,48.0,29.90,NW,315,0.0,0.0,71,0.00,,,0.00,LWC V2.10 B1813,2013-08-04 13:39:00,
2013-08-04 06:44:00,57.2,47.8,29.90,NW,315,0.0,0.0,71,0.00,,,0.00,LWC V2.10 B1813,2013-08-04 13:44:00,
2013-08-04 06:49:00,57.2,47.8,29.90,NW,315,0.0,0.0,71,0.00,,,0.00,LWC V2.10 B1813,2013-08-04 13:49:00,
2013-08-04 06:54:00,57.2,47.8,29.90,NW,315,0.0,0.0,71,0.00,,,0.00,LWC V2.10 B1813,2013-08-04 13:54:00,
2013-08-04 06:59:00,57.4,48.0,29.90,North,0,0.0,0.0,71,0.00,,,0.00,LWC V2.10 B1813,2013-08-04 13:59:00,
2013-08-04 07:04:00,57.0,47.7,29.90,NE,45,0.0,0.0,71,0.00,,,0.00,LWC V2.10 B1813,2013-08-04 14:04:00,
2013-08-04 07:09:00,57.0,47.7,29.90,NE,45,0.0,0.0,71,0.00,,,0.00,LWC V2.10 B1813,2013-08-04 14:09:00,
2013-08-04 07:14:00,57.0,47.7,29.90,NE,45,0.0,0.0,71,0.00,,,0.00,LWC V2.10 B1813,2013-08-04 14:14:00,
2013-08-04 07:19:00,57.0,47.7,29.90,NE,45,0.0,0.0,71,0.00,,,0.00,LWC V2.10 B1813,2013-08-04 14:19:00,
2013-08-04 07:24:00,57.0,47.7,29.90,NE,45,0.0,0.0,71,0.00,,,0.00,LWC V2.10 B1813,2013-08-04 14:24:00,
2013-08-04 07:29:00,57.0,48.0,29.90,NE,45,0.0,0.0,72,0.00,,,0.00,LWC V2.10 B1813,2013-08-04 14:29:00,
2013-08-04 07:34:00,57.0,47.8,29.90,WNW,292,0.0,0.0,71,0.00,,,0.00,LWC V2.10 B1813,2013-08-04 14:34:00,
2013-08-04 07:39:00,57.0,47.7,29.90,WNW,292,0.0,0.0,71,0.00,,,0.00,LWC V2.10 B1813,2013-08-04 14:39:00,
2013-08-04 07:44:00,57.0,47.7,29.90,WNW,292,0.0,0.0,71,0.00,,,0.00,LWC V2.10 B1813,2013-08-04 14:44:00,
2013-08-04 07:49:00,57.0,47.7,29.90,WNW,292,0.0,0.0,71,0.00,,,0.00,LWC V2.10 B1813,2013-08-04 14:49:00,
2013-08-04 07:54:00,57.0,47.7,29.91,NW,315,0.0,0.0,71,0.00,,,0.00,LWC V2.10 B1813,2013-08-04 14:54:00,
2013-08-04 07:59:00,57.4,48.0,29.91,WNW,292,0.0,0.0,71,0.00,,,0.00,LWC V2.10 B1813,2013-08-04 14:59:00,
2013-08-04 08:04:00,57.4,48.0,29.91,WNW,292,0.0,0.0,71,0.00,,,0.00,LWC V2.10 B1813,2013-08-04 15:04:00,
2013-08-04 08:09:00,57.4,48.0,29.91,NW,315,0.0,0.0,71,0.00,,,0.00,LWC V2.10 B1813,2013-08-04 15:09:00,
2013-08-04 08:14:00,57.6,48.2,29.91,WNW,292,0.0,0.0,71,0.00,,,0.00,LWC V2.10 B1813,2013-08-04 15:14:00,
2013-08-04 08:19:00,57.6,48.2,29.91,NNE,22,0.0,0.0,71,0.00,,,0.00,LWC V2.10 B1813,2013-08-04 15:19:00,
2013-08-04 08:24:00,57.6,48.2,29.91,SE,135,0.0,0.0,71,0.00,,,0.00,LWC V2.10 B1813,2013-08-04 15:24:00,
2013-08-04 08:29:00,57.7,48.4,29.91,NNW,337,0.0,0.0,71,0.00,,,0.00,LWC V2.10 B1813,2013-08-04 15:29:00,
2013-08-04 08:34:00,57.9,48.6,29.91,NNW,337,0.0,0.0,71,0.00,,,0.00,LWC V2.10 B1813,2013-08-04 15:34:00,
2013-08-04 08:39:00,57.9,48.6,29.91,NNW,337,0.0,0.0,71,0.00,,,0.00,LWC V2.10 B1813,2013-08-04 15:39:00,
2013-08-04 08:44:00,58.1,48.7,29.91,ENE,67,0.0,0.0,71,0.00,,,0.00,LWC V2.10 B1813,2013-08-04 15:44:00,
2013-08-04 08:49:00,58.6,49.3,29.91,ENE,67,0.0,0.0,71,0.00,,,0.00,LWC V2.10 B1813,2013-08-04 15:49:00,
2013-08-04 08:54:00,58.8,49.1,29.91,East,90,0.0,0.0,70,0.00,,,0.00,LWC V2.10 B1813,2013-08-04 15:54:00,
2013-08-04 08:59:00,58.8,49.1,29.91,ENE,67,0.0,0.0,70,0.00,,,0.00,LWC V2.10 B1813,2013-08-04 15:59:00,
2013-08-04 09:04:00,59.2,49.5,29.91,ESE,112,0.0,0.0,70,0.00,,,0.00,LWC V2.10 B1813,2013-08-04 16:04:00,
2013-08-04 09:09:00,59.5,49.8,29.91,SE,135,0.0,0.0,70,0.00,,,0.00,LWC V2.10 B1813,2013-08-04 16:09:00,
2013-08-04 09:14:00,59.7,49.6,29.91,SE,135,0.0,0.0,69,0.00,,,0.00,LWC V2.10 B1813,2013-08-04 16:14:00,
2013-08-04 09:19:00,60.1,49.9,29.91,North,0,0.0,0.0,69,0.00,,,0.00,LWC V2.10 B1813,2013-08-04 16:19:00,
2013-08-04 09:24:00,60.1,49.9,29.91,ESE,112,0.0,1.6,69,0.00,,,0.00,LWC V2.10 B1813,2013-08-04 16:24:00,
2013-08-04 09:29:00,60.4,50.3,29.91,SE,135,0.0,0.0,69,0.00,,,0.00,LWC V2.10 B1813,2013-08-04 16:29:00,
2013-08-04 09:34:00,61.0,50.1,29.91,ENE,67,0.0,0.0,68,0.00,,,0.00,LWC V2.10 B1813,2013-08-04 16:34:00,
2013-08-04 09:39:00,61.2,50.6,29.91,ENE,67,0.0,1.6,68,0.00,,,0.00,LWC V2.10 B1813,2013-08-04 16:39:00,
2013-08-04 09:44:00,61.5,50.5,29.91,SSE,157,0.0,0.0,67,0.00,,,0.00,LWC V2.10 B1813,2013-08-04 16:44:00,
2013-08-04 09:49:00,61.9,50.8,29.91,ENE,67,0.0,2.5,67,0.00,,,0.00,LWC V2.10 B1813,2013-08-04 16:49:00,
2013-08-04 09:54:00,62.2,51.1,29.91,SSE,157,0.0,0.0,67,0.00,,,0.00,LWC V2.10 B1813,2013-08-04 16:54:00,
2013-08-04 09:59:00,62.6,51.0,29.91,ENE,67,1.3,1.3,66,0.00,,,0.00,LWC V2.10 B1813,2013-08-04 16:59:00,
2013-08-04 10:04:00,63.3,51.7,29.91,ESE,112,0.0,0.0,66,0.00,,,0.00,LWC V2.10 B1813,2013-08-04 17:04:00,
2013-08-04 10:09:00,63.7,51.7,29.91,ESE,112,6.7,6.7,65,0.00,,,0.00,LWC V2.10 B1813,2013-08-04 17:09:00,
2013-08-04 10:14:00,64.2,52.2,29.91,ENE,67,7.4,7.4,65,0.00,,,0.00,LWC V2.10 B1813,2013-08-04 17:14:00,
2013-08-04 10:19:00,64.6,52.1,29.91,ENE,67,3.1,3.1,64,0.00,,,0.00,LWC V2.10 B1813,2013-08-04 17:19:00,
2013-08-04 10:24:00,64.8,52.2,29.91,ESE,112,1.1,1.1,64,0.00,,,0.00,LWC V2.10 B1813,2013-08-04 17:24:00,
2013-08-04 10:29:00,65.1,52.6,29.91,ESE,112,0.0,0.0,64,0.00,,,0.00,LWC V2.10 B1813,2013-08-04 17:29:00,
2013-08-04 10:34:00,65.8,52.9,29.92,NE,45,1.8,2.0,63,0.00,,,0.00,LWC V2.10 B1813,2013-08-04 17:34:00,
2013-08-04 10:39:00,66.2,52.8,29.92,ENE,67,2.5,2.5,62,0.00,,,0.00,LWC V2.10 B1813,2013-08-04 17:39:00,
2013-08-04 10:44:00,66.6,53.1,29.92,ENE,67,0.0,0.0,62,0.00,,,0.00,LWC V2.10 B1813,2013-08-04 17:44:00,
2013-08-04 10:49:00,66.9,53.0,29.93,East,90,4.2,4.2,61,0.00,,,0.00,LWC V2.10 B1813,2013-08-04 17:49:00,
2013-08-04 10:54:00,67.1,53.2,29.93,ENE,67,7.4,7.4,61,0.00,,,0.00,LWC V2.10 B1813,2013-08-04 17:54:00,
2013-08-04 10:59:00,67.3,53.4,29.93,ENE,67,4.5,4.5,61,0.00,,,0.00,LWC V2.10 B1813,2013-08-04 17:59:00,
2013-08-04 11:04:00,67.8,53.4,29.93,East,90,0.0,0.0,60,0.00,,,0.00,LWC V2.10 B1813,2013-08-04 18:04:00,
2013-08-04 11:09:00,67.8,53.4,29.93,SE,135,1.3,1.3,60,0.00,,,0.00,LWC V2.10 B1813,2013-08-04 18:09:00,
2013-08-04 11:14:00,68.2,53.3,29.92,NW,315,0.0,0.0,59,0.00,,,0.00,LWC V2.10 B1813,2013-08-04 18:14:00,
2013-08-04 11:19:00,68.5,53.6,29.92,ENE,67,0.0,0.0,59,0.00,,,0.00,LWC V2.10 B1813,2013-08-04 18:19:00,
2013-08-04 11:24:00,68.7,53.3,29.92,ENE,67,1.8,1.8,58,0.00,,,0.00,LWC V2.10 B1813,2013-08-04 18:24:00,
2013-08-04 11:29:00,68.9,53.5,29.92,East,90,0.0,0.0,58,0.00,,,0.00,LWC V2.10 B1813,2013-08-04 18:29:00,
2013-08-04 11:34:00,69.3,53.9,29.92,SE,135,0.0,0.0,58,0.00,,,0.00,LWC V2.10 B1813,2013-08-04 18:34:00,
2013-08-04 11:39:00,69.6,53.7,29.92,ENE,67,6.0,6.0,57,0.00,,,0.00,LWC V2.10 B1813,2013-08-04 18:39:00,
2013-08-04 11:44:00,69.8,53.9,29.91,ENE,67,0.0,0.0,57,0.00,,,0.00,LWC V2.10 B1813,2013-08-04 18:44:00,
2013-08-04 11:49:00,70.3,54.4,29.91,ENE,67,9.2,9.2,57,0.00,,,0.00,LWC V2.10 B1813,2013-08-04 18:49:00,
2013-08-04 11:54:00,70.5,54.0,29.91,ENE,67,2.7,2.7,56,0.00,,,0.00,LWC V2.10 B1813,2013-08-04 18:54:00,
2013-08-04 11:59:00,70.7,54.2,29.91,ENE,67,4.2,4.2,56,0.00,,,0.00,LWC V2.10 B1813,2013-08-04 18:59:00,
2013-08-04 12:04:00,70.9,53.9,29.91,ENE,67,7.6,7.6,55,0.00,,,0.00,LWC V2.10 B1813,2013-08-04 19:04:00,
2013-08-04 12:09:00,70.9,53.9,29.91,East,90,1.8,1.8,55,0.00,,,0.00,LWC V2.10 B1813,2013-08-04 19:09:00,
2013-08-04 12:14:00,71.2,53.9,29.91,NE,45,0.0,0.0,55,0.00,,,0.00,LWC V2.10 B1813,2013-08-04 19:14:00,
2013-08-04 12:19:00,71.2,53.7,29.91,ENE,67,0.0,7.8,54,0.00,,,0.00,LWC V2.10 B1813,2013-08-04 19:19:00,
2013-08-04 12:24:00,71.2,53.7,29.91,NE,45,2.7,2.7,54,0.00,,,0.00,LWC V2.10 B1813,2013-08-04 19:24:00,
2013-08-04 12:29:00,71.2,53.7,29.91,SE,135,0.0,4.2,54,0.00,,,0.00,LWC V2.10 B1813,2013-08-04 19:29:00,
2013-08-04 12:34:00,71.4,53.8,29.91,NE,45,6.5,6.5,54,0.00,,,0.00,LWC V2.10 B1813,2013-08-04 19:34:00,
2013-08-04 12:39:00,71.4,53.8,29.91,ENE,67,3.1,3.1,54,0.00,,,0.00,LWC V2.10 B1813,2013-08-04 19:39:00,
2013-08-04 12:44:00,71.4,53.3,29.91,ENE,67,4.5,5.8,53,0.00,,,0.00,LWC V2.10 B1813,2013-08-04 19:44:00,
2013-08-04 12:49:00,71.4,53.3,29.91,ESE,112,0.0,4.5,53,0.00,,,0.00,LWC V2.10 B1813,2013-08-04 19:49:00,
2013-08-04 12:54:00,71.4,53.3,29.91,East,90,2.2,2.2,53,0.00,,,0.00,LWC V2.10 B1813,2013-08-04 19:54:00,
2013-08-04 12:59:00,71.4,53.3,29.91,SE,135,0.0,5.4,53,0.00,,,0.00,LWC V2.10 B1813,2013-08-04 19:59:00,
2013-08-04 13:04:00,71.8,53.7,29.91,ENE,67,6.5,6.5,53,0.00,,,0.00,LWC V2.10 B1813,2013-08-04 20:04:00,
2013-08-04 13:09:00,71.8,53.7,29.91,ENE,67,8.7,8.7,53,0.00,,,0.00,LWC V2.10 B1813,2013-08-04 20:09:00,
2013-08-04 13:14:00,72.1,53.5,29.90,ENE,67,5.1,5.1,52,0.00,,,0.00,LWC V2.10 B1813,2013-08-04 20:14:00,
2013-08-04 13:19:00,72.1,53.5,29.90,ENE,67,6.9,6.9,52,0.00,,,0.00,LWC V2.10 B1813,2013-08-04 20:19:00,
2013-08-04 13:24:00,72.1,54.0,29.91,East,90,3.8,3.8,53,0.00,,,0.00,LWC V2.10 B1813,2013-08-04 20:24:00,
2013-08-04 13:29:00,72.3,53.6,29.90,ENE,67,6.0,6.0,52,0.00,,,0.00,LWC V2.10 B1813,2013-08-04 20:29:00,
2013-08-04 13:34:00,72.5,53.8,29.90,East,90,1.8,4.7,52,0.00,,,0.00,LWC V2.10 B1813,2013-08-04 20:34:00,
2013-08-04 13:39:00,72.7,54.0,29.90,NE,45,2.9,2.9,52,0.00,,,0.00,LWC V2.10 B1813,2013-08-04 20:39:00,
2013-08-04 13:45:00,72.5,53.8,29.90,NE,45,0.0,0.0,52,0.00,,,0.00,LWC V2.10 B1813,2013-08-04 20:45:00,
2013-08-04 13:50:00,72.3,53.6,29.90,NE,45,1.1,6.0,52,0.00,,,0.00,LWC V2.10 B1813,2013-08-04 20:50:00,
2013-08-04 13:55:00,72.7,54.0,29.90,ENE,67,2.7,2.7,52,0.00,,,0.00,LWC V2.10 B1813,2013-08-04 20:55:00,
2013-08-04 14:00:00,72.9,53.6,29.90,ENE,67,0.0,6.3,51,0.00,,,0.00,LWC V2.10 B1813,2013-08-04 21:00:00,
2013-08-04 14:05:00,72.7,53.5,29.90,ENE,67,2.9,4.0,51,0.00,,,0.00,LWC V2.10 B1813,2013-08-04 21:05:00,
2013-08-04 14:10:00,72.9,53.6,29.90,East,90,4.9,4.9,51,0.00,,,0.00,LWC V2.10 B1813,2013-08-04 21:10:00,
2013-08-04 14:15:00,73.2,53.9,29.90,ENE,67,4.5,4.5,51,0.00,,,0.00,LWC V2.10 B1813,2013-08-04 21:15:00,
2013-08-04 14:20:00,73.2,53.9,29.90,ENE,67,0.0,0.0,51,0.00,,,0.00,LWC V2.10 B1813,2013-08-04 21:20:00,
2013-08-04 14:25:00,73.2,53.9,29.89,ENE,67,5.8,5.8,51,0.00,,,0.00,LWC V2.10 B1813,2013-08-04 21:25:00,
2013-08-04 14:30:00,73.2,53.4,29.90,ENE,67,6.9,6.9,50,0.00,,,0.00,LWC V2.10 B1813,2013-08-04 21:30:00,
2013-08-04 14:35:00,73.2,53.4,29.89,ENE,67,8.1,8.1,50,0.00,,,0.00,LWC V2.10 B1813,2013-08-04 21:35:00,
2013-08-04 14:40:00,73.0,53.3,29.89,ESE,112,4.9,4.9,50,0.00,,,0.00,LWC V2.10 B1813,2013-08-04 21:40:00,
2013-08-04 14:45:00,73.0,53.3,29.89,ENE,67,6.3,6.3,50,0.00,,,0.00,LWC V2.10 B1813,2013-08-04 21:45:00,
2013-08-04 14:50:00,73.2,53.4,29.89,NE,45,0.0,0.0,50,0.00,,,0.00,LWC V2.10 B1813,2013-08-04 21:50:00,
2013-08-04 14:55:00,73.2,53.4,29.89,ESE,112,3.1,3.1,50,0.00,,,0.00,LWC V2.10 B1813,2013-08-04 21:55:00,
2013-08-04 15:00:00,73.6,53.8,29.88,ENE,67,1.8,3.4,50,0.00,,,0.00,LWC V2.10 B1813,2013-08-04 22:00:00,
2013-08-04 15:05:00,73.6,53.8,29.88,ENE,67,0.0,0.0,50,0.00,,,0.00,LWC V2.10 B1813,2013-08-04 22:05:00,
2013-08-04 15:10:00,73.6,53.8,29.88,ENE,67,7.4,7.4,50,0.00,,,0.00,LWC V2.10 B1813,2013-08-04 22:10:00,
2013-08-04 15:15:00,73.4,53.6,29.88,NE,45,0.0,0.0,50,0.00,,,0.00,LWC V2.10 B1813,2013-08-04 22:15:00,
2013-08-04 15:20:00,73.4,53.6,29.88,ENE,67,5.6,5.6,50,0.00,,,0.00,LWC V2.10 B1813,2013-08-04 22:20:00,
2013-08-04 15:25:00,73.8,54.0,29.88,NE,45,5.6,5.6,50,0.00,,,0.00,LWC V2.10 B1813,2013-08-04 22:25:00,
2013-08-04 15:30:00,73.8,54.0,29.88,NE,45,0.0,3.1,50,0.00,,,0.00,LWC V2.10 B1813,2013-08-04 22:30:00,
2013-08-04 15:35:00,73.9,54.1,29.87,ENE,67,1.1,1.1,50,0.00,,,0.00,LWC V2.10 B1813,2013-08-04 22:35:00,
2013-08-04 15:40:00,73.9,54.1,29.87,ENE,67,4.7,4.7,50,0.00,,,0.00,LWC V2.10 B1813,2013-08-04 22:40:00,
2013-08-04 15:45:00,73.9,54.1,29.87,ENE,67,9.2,9.2,50,0.00,,,0.00,LWC V2.10 B1813,2013-08-04 22:45:00,
2013-08-04 15:50:00,73.9,54.1,29.87,East,90,8.1,8.1,50,0.00,,,0.00,LWC V2.10 B1813,2013-08-04 22:50:00,
2013-08-04 15:55:00,73.9,53.5,29.87,ENE,67,5.4,5.4,49,0.00,,,0.00,LWC V2.10 B1813,2013-08-04 22:55:00,
2013-08-04 16:00:00,73.9,54.1,29.87,NE,45,0.0,0.0,50,0.00,,,0.00,LWC V2.10 B1813,2013-08-04 23:00:00,
2013-08-04 16:05:00,73.9,54.1,29.87,East,90,3.4,3.4,50,0.00,,,0.00,LWC V2.10 B1813,2013-08-04 23:05:00,
2013-08-04 16:10:00,73.9,53.5,29.87,ENE,67,0.0,0.0,49,0.00,,,0.00,LWC V2.10 B1813,2013-08-04 23:10:00,
2013-08-04 16:15:00,73.8,53.3,29.87,NE,45,0.0,4.7,49,0.00,,,0.00,LWC V2.10 B1813,2013-08-04 23:15:00,
2013-08-04 16:20:00,73.6,53.2,29.87,ENE,67,0.0,0.0,49,0.00,,,0.00,LWC V2.10 B1813,2013-08-04 23:20:00,
2013-08-04 16:25:00,73.6,53.8,29.87,ESE,112,0.7,0.7,50,0.00,,,0.00,LWC V2.10 B1813,2013-08-04 23:25:00,
2013-08-04 16:30:00,73.6,53.8,29.87,ESE,112,0.0,0.0,50,0.00,,,0.00,LWC V2.10 B1813,2013-08-04 23:30:00,
2013-08-04 16:35:00,73.6,53.8,29.87,ENE,67,2.2,2.2,50,0.00,,,0.00,LWC V2.10 B1813,2013-08-04 23:35:00,
2013-08-04 16:40:00,73.6,53.8,29.87,NE,45,3.6,3.6,50,0.00,,,0.00,LWC V2.10 B1813,2013-08-04 23:40:00,
2013-08-04 16:45:00,73.8,53.3,29.87,ENE,67,1.1,1.1,49,0.00,,,0.00,LWC V2.10 B1813,2013-08-04 23:45:00,
2013-08-04 16:50:00,73.6,53.8,29.86,NE,45,0.0,0.0,50,0.00,,,0.00,LWC V2.10 B1813,2013-08-04 23:50:00,
2013-08-04 16:55:00,73.6,54.0,29.86,ENE,67,0.0,7.8,50,0.00,,,0.00,LWC V2.10 B1813,2013-08-04 23:55:00,
2013-08-04 17:00:00,73.9,54.1,29.86,ENE,67,0.0,1.6,50,0.00,,,0.00,LWC V2.10 B1813,2013-08-05 00:00:00,
2013-08-04 17:05:00,73.9,54.1,29.86,ESE,112,0.0,0.0,50,0.00,,,0.00,LWC V2.10 B1813,2013-08-05 00:05:00,
2013-08-04 17:10:00,73.9,54.1,29.86,ENE,67,0.0,0.0,50,0.00,,,0.00,LWC V2.10 B1813,2013-08-05 00:10:00,
2013-08-04 17:15:00,73.9,54.1,29.86,NE,45,0.0,0.0,50,0.00,,,0.00,LWC V2.10 B1813,2013-08-05 00:15:00,
2013-08-04 17:20:00,73.9,54.1,29.86,East,90,3.6,3.6,50,0.00,,,0.00,LWC V2.10 B1813,2013-08-05 00:20:00,
2013-08-04 17:25:00,73.9,54.1,29.86,ENE,67,0.0,0.0,50,0.00,,,0.00,LWC V2.10 B1813,2013-08-05 00:25:00,
2013-08-04 17:30:00,73.9,54.1,29.86,ENE,67,0.0,2.5,50,0.00,,,0.00,LWC V2.10 B1813,2013-08-05 00:30:00,
2013-08-04 17:35:00,73.9,54.1,29.86,ESE,112,0.0,0.0,50,0.00,,,0.00,LWC V2.10 B1813,2013-08-05 00:35:00,
2013-08-04 17:40:00,74.1,54.3,29.86,ENE,67,0.0,0.0,50,0.00,,,0.00,LWC V2.10 B1813,2013-08-05 00:40:00,
2013-08-04 17:45:00,74.1,54.3,29.86,NE,45,0.0,0.0,50,0.00,,,0.00,LWC V2.10 B1813,2013-08-05 00:45:00,
2013-08-04 17:50:00,74.1,54.3,29.86,ENE,67,0.0,0.0,50,0.00,,,0.00,LWC V2.10 B1813,2013-08-05 00:50:00,
2013-08-04 17:55:00,74.1,54.3,29.86,ENE,67,0.0,0.0,50,0.00,,,0.00,LWC V2.10 B1813,2013-08-05 00:55:00,
2013-08-04 18:00:00,74.1,54.3,29.87,ENE,67,0.0,0.9,50,0.00,,,0.00,LWC V2.10 B1813,2013-08-05 01:00:00,
2013-08-04 18:05:00,74.1,54.3,29.86,East,90,0.0,0.0,50,0.00,,,0.00,LWC V2.10 B1813,2013-08-05 01:05:00,
2013-08-04 18:10:00,73.9,54.3,29.86,NW,315,0.0,0.0,50,0.00,,,0.00,LWC V2.10 B1813,2013-08-05 01:10:00,
2013-08-04 18:15:00,73.6,53.8,29.86,NNW,337,5.4,5.4,50,0.00,,,0.00,LWC V2.10 B1813,2013-08-05 01:15:00,
2013-08-04 18:20:00,73.2,53.9,29.86,WNW,292,1.8,1.8,51,0.00,,,0.00,LWC V2.10 B1813,2013-08-05 01:20:00,
2013-08-04 18:25:00,73.2,53.9,29.87,WNW,292,7.2,7.2,51,0.00,,,0.00,LWC V2.10 B1813,2013-08-05 01:25:00,
2013-08-04 18:30:00,72.9,53.6,29.86,NW,315,0.0,0.0,51,0.00,,,0.00,LWC V2.10 B1813,2013-08-05 01:30:00,
2013-08-04 18:35:00,72.5,53.8,29.87,NNW,337,0.0,0.0,52,0.00,,,0.00,LWC V2.10 B1813,2013-08-05 01:35:00,
2013-08-04 18:40:00,72.3,53.6,29.87,West,270,0.0,5.1,52,0.00,,,0.00,LWC V2.10 B1813,2013-08-05 01:40:00,
2013-08-04 18:45:00,72.1,53.5,29.87,NNW,337,0.0,0.0,52,0.00,,,0.00,LWC V2.10 B1813,2013-08-05 01:45:00,
2013-08-04 18:50:00,72.0,53.3,29.87,NNW,337,4.2,4.2,52,0.00,,,0.00,LWC V2.10 B1813,2013-08-05 01:50:00,
2013-08-04 18:55:00,70.9,52.3,29.87,NW,315,2.5,6.0,52,0.00,,,0.00,LWC V2.10 B1813,2013-08-05 01:55:00,
2013-08-04 19:00:00,70.0,52.0,29.88,West,270,0.0,0.0,53,0.00,,,0.00,LWC V2.10 B1813,2013-08-05 02:00:00,
2013-08-04 19:05:00,69.6,52.2,29.88,NW,315,0.0,0.0,54,0.00,,,0.00,LWC V2.10 B1813,2013-08-05 02:05:00,
2013-08-04 19:10:00,69.3,51.7,29.88,WNW,292,4.9,4.9,54,0.00,,,0.00,LWC V2.10 B1813,2013-08-05 02:10:00,
2013-08-04 19:15:00,68.7,51.9,29.88,West,270,0.0,1.3,55,0.00,,,0.00,LWC V2.10 B1813,2013-08-05 02:15:00,
2013-08-04 19:20:00,68.4,51.5,29.88,North,0,0.0,0.0,55,0.00,,,0.00,LWC V2.10 B1813,2013-08-05 02:20:00,
2013-08-04 19:25:00,67.6,50.5,29.89,WNW,292,6.5,6.5,55,0.00,,,0.00,LWC V2.10 B1813,2013-08-05 02:25:00,
2013-08-04 19:30:00,66.4,50.2,29.89,NNW,337,0.0,0.0,56,0.00,,,0.00,LWC V2.10 B1813,2013-08-05 02:30:00,
2013-08-04 19:35:00,65.8,50.2,29.89,North,0,5.1,5.1,57,0.00,,,0.00,LWC V2.10 B1813,2013-08-05 02:35:00,
2013-08-04 19:40:00,64.9,49.4,29.89,WNW,292,0.0,0.0,58,0.00,,,0.00,LWC V2.10 B1813,2013-08-05 02:40:00,
2013-08-04 19:45:00,64.2,49.5,29.89,WSW,247,0.0,0.0,59,0.00,,,0.00,LWC V2.10 B1813,2013-08-05 02:45:00,
2013-08-04 19:50:00,63.7,49.5,29.89,NW,315,4.7,4.7,60,0.00,,,0.00,LWC V2.10 B1813,2013-08-05 02:50:00,
2013-08-04 19:55:00,62.8,49.5,29.90,NNW,337,6.3,6.3,61,0.00,,,0.00,LWC V2.10 B1813,2013-08-05 02:55:00,
2013-08-04 20:00:00,62.4,49.2,29.89,WNW,292,2.2,2.2,62,0.00,,,0.00,LWC V2.10 B1813,2013-08-05 03:00:00,
2013-08-04 20:05:00,62.2,49.1,29.90,North,0,3.6,3.6,62,0.00,,,0.00,LWC V2.10 B1813,2013-08-05 03:05:00,
2013-08-04 20:10:00,61.7,49.2,29.89,NNW,337,1.1,1.1,63,0.00,,,0.00,LWC V2.10 B1813,2013-08-05 03:10:00,
2013-08-04 20:15:00,61.3,49.1,29.90,WNW,292,0.0,0.0,64,0.00,,,0.00,LWC V2.10 B1813,2013-08-05 03:15:00,
2013-08-04 20:20:00,61.0,48.8,29.89,NNW,337,0.0,0.0,64,0.00,,,0.00,LWC V2.10 B1813,2013-08-05 03:20:00,
2013-08-04 20:25:00,60.6,48.8,29.90,North,0,5.4,5.4,65,0.00,,,0.00,LWC V2.10 B1813,2013-08-05 03:25:00,
2013-08-04 20:30:00,60.4,49.1,29.90,NW,315,0.4,3.1,66,0.00,,,0.00,LWC V2.10 B1813,2013-08-05 03:30:00,
2013-08-04 20:35:00,60.1,48.7,29.90,NW,315,1.8,1.8,66,0.00,,,0.00,LWC V2.10 B1813,2013-08-05 03:35:00,
2013-08-04 20:40:00,59.9,48.5,29.90,NW,315,0.0,0.0,66,0.00,,,0.00,LWC V2.10 B1813,2013-08-05 03:40:00,
2013-08-04 20:45:00,59.5,48.6,29.91,West,270,0.0,0.0,67,0.00,,,0.00,LWC V2.10 B1813,2013-08-05 03:45:00,
2013-08-04 20:50:00,59.5,48.6,29.91,NNW,337,0.0,0.0,67,0.00,,,0.00,LWC V2.10 B1813,2013-08-05 03:50:00,
2013-08-04 20:55:00,59.2,48.6,29.90,NW,315,0.0,0.0,68,0.00,,,0.00,LWC V2.10 B1813,2013-08-05 03:55:00,
2013-08-04 21:00:00,58.8,48.7,29.91,North,0,0.0,0.0,69,0.00,,,0.00,LWC V2.10 B1813,2013-08-05 04:00:00,
2013-08-04 21:01:00,58.8,48.7,29.91,North,0,0.0,0.0,69,0.00,,,0.00,LWC V2.10 B1813,2013-08-05 04:01:00,
2013-08-04 21:06:00,58.8,48.7,29.91,North,0,4.7,4.7,69,0.00,,,0.00,LWC V2.10 B1813,2013-08-05 04:06:00,
2013-08-04 21:11:00,58.8,48.7,29.91,North,0,3.8,3.8,69,0.00,,,0.00,LWC V2.10 B1813,2013-08-05 04:11:00,
2013-08-04 21:16:00,58.6,49.1,29.91,North,0,0.0,0.0,70,0.00,,,0.00,LWC V2.10 B1813,2013-08-05 04:16:00,
2013-08-04 21:21:00,58.6,48.9,29.91,NNE,22,0.0,0.0,70,0.00,,,0.00,LWC V2.10 B1813,2013-08-05 04:21:00,
2013-08-04 21:26:00,58.6,48.9,29.91,North,0,0.0,0.0,70,0.00,,,0.00,LWC V2.10 B1813,2013-08-05 04:26:00,
2013-08-04 21:31:00,58.6,48.9,29.92,NNW,337,0.0,0.0,70,0.00,,,0.00,LWC V2.10 B1813,2013-08-05 04:31:00,
2013-08-04 21:36:00,58.6,48.9,29.92,NNE,22,0.0,4.2,70,0.00,,,0.00,LWC V2.10 B1813,2013-08-05 04:36:00,
2013-08-04 21:41:00,58.5,48.7,29.92,NNW,337,0.0,0.0,70,0.00,,,0.00,LWC V2.10 B1813,2013-08-05 04:41:00,
2013-08-04 21:46:00,58.5,48.7,29.92,NW,315,0.0,0.0,70,0.00,,,0.00,LWC V2.10 B1813,2013-08-05 04:46:00,
2013-08-04 21:51:00,58.6,48.9,29.92,North,0,0.0,0.0,70,0.00,,,0.00,LWC V2.10 B1813,2013-08-05 04:51:00,
2013-08-04 21:56:00,58.6,49.3,29.92,NNW,337,0.0,0.0,71,0.00,,,0.00,LWC V2.10 B1813,2013-08-05 04:56:00,
2013-08-04 22:02:00,58.6,49.3,29.92,NNW,337,0.0,0.0,71,0.00,,,0.00,LWC V2.10 B1813,2013-08-05 05:02:00,
2013-08-04 22:07:00,58.6,49.3,29.92,WNW,292,0.0,0.0,71,0.00,,,0.00,LWC V2.10 B1813,2013-08-05 05:07:00,
2013-08-04 22:11:00,58.8,49.5,29.92,NNW,337,0.0,0.0,71,0.00,,,0.00,LWC V2.10 B1813,2013-08-05 05:11:00,
2013-08-04 22:16:00,58.8,49.5,29.93,NNW,337,0.0,0.0,71,0.00,,,0.00,LWC V2.10 B1813,2013-08-05 05:16:00,
2013-08-04 22:21:00,58.8,49.5,29.93,North,0,0.0,0.0,71,0.00,,,0.00,LWC V2.10 B1813,2013-08-05 05:21:00,
2013-08-04 22:26:00,58.8,49.5,29.93,North,0,0.0,0.0,71,0.00,,,0.00,LWC V2.10 B1813,2013-08-05 05:26:00,
2013-08-04 22:31:00,58.8,49.5,29.93,North,0,0.0,0.0,71,0.00,,,0.00,LWC V2.10 B1813,2013-08-05 05:31:00,
2013-08-04 22:36:00,58.8,49.5,29.93,North,0,0.0,0.0,71,0.00,,,0.00,LWC V2.10 B1813,2013-08-05 05:36:00,
2013-08-04 22:41:00,58.8,49.5,29.92,North,0,0.0,0.0,71,0.00,,,0.00,LWC V2.10 B1813,2013-08-05 05:41:00,
2013-08-04 22:46:00,58.8,49.5,29.93,North,0,0.0,0.0,71,0.00,,,0.00,LWC V2.10 B1813,2013-08-05 05:46:00,
2013-08-04 22:51:00,58.8,49.5,29.93,NNW,337,0.0,0.0,71,0.00,,,0.00,LWC V2.10 B1813,2013-08-05 05:51:00,
2013-08-04 22:56:00,58.8,49.5,29.93,NNW,337,0.0,0.0,71,0.00,,,0.00,LWC V2.10 B1813,2013-08-05 05:56:00,
2013-08-04 23:01:00,58.8,49.5,29.93,NNW,337,0.0,0.0,71,0.00,,,0.00,LWC V2.10 B1813,2013-08-05 06:01:00,
2013-08-04 23:06:00,58.8,49.5,29.93,NNW,337,0.0,0.0,71,0.00,,,0.00,LWC V2.10 B1813,2013-08-05 06:06:00,
2013-08-04 23:11:00,58.8,49.5,29.93,NW,315,0.0,0.0,71,0.00,,,0.00,LWC V2.10 B1813,2013-08-05 06:11:00,
2013-08-04 23:16:00,58.8,49.5,29.93,NW,315,0.0,0.0,71,0.00,,,0.00,LWC V2.10 B1813,2013-08-05 06:16:00,
2013-08-04 23:21:00,58.8,49.5,29.93,NW,315,0.0,0.0,71,0.00,,,0.00,LWC V2.10 B1813,2013-08-05 06:21:00,
2013-08-04 23:26:00,58.8,49.5,29.92,NNW,337,0.0,0.0,71,0.00,,,0.00,LWC V2.10 B1813,2013-08-05 06:26:00,
2013-08-04 23:31:00,58.8,49.5,29.92,WSW,247,0.0,2.7,71,0.00,,,0.00,LWC V2.10 B1813,2013-08-05 06:31:00,
2013-08-04 23:36:00,58.8,49.5,29.92,WNW,292,0.0,0.0,71,0.00,,,0.00,LWC V2.10 B1813,2013-08-05 06:36:00,
2013-08-04 23:41:00,58.8,49.5,29.92,WNW,292,0.0,0.0,71,0.00,,,0.00,LWC V2.10 B1813,2013-08-05 06:41:00,
2013-08-04 23:46:00,59.4,50.4,29.92,NNW,337,0.0,0.0,72,0.00,,,0.00,LWC V2.10 B1813,2013-08-05 06:46:00,
2013-08-04 23:51:00,59.5,50.2,29.92,North,0,0.0,0.0,71,0.00,,,0.00,LWC V2.10 B1813,2013-08-05 06:51:00,
2013-08-04 23:56:00,59.5,50.2,29.93,North,0,0.0,0.0,71,0.00,,,0.00,LWC V2.10 B1813,2013-08-05 06:56:00,